Location: Diguira
(13.1838°N, 4.9109°W)
Time: 17:12:13
(UTC+00:00)

Cosmos 2233 Rocket - Pass Details

Date: 18 September 2020
Orbit: 952 x 991 km, 82.9° (Epoch: 24 October)

Event Time Altitude Azimuth Distance (km) Brightness Sun altitude
Rises 18:31:01 0° 180° (S) 3,689 7.0 -3.9°
Reaches altitude 10° 18:33:32 10° 179° (S) 2,738 6.3 -4.5°
Maximum altitude 18:39:49 79° 93° (E) 1,001 4.0 -6.1°
Drops below altitude 10° 18:46:02 10° 7° (N) 2,716 6.3 -7.6°
Sets 18:48:32 0° 6° (N) 3,658 7.0 -8.2°
